Location: Mohawk View
(42.7837°N, 73.7885°W)
Time: 09:25:12
(UTC+00:00)

Meteor 1-24 Rocket - Pass Details

Date: 27 October 2021
Orbit: 790 x 927 km, 81.3° (Epoch: 27 November)

Event Time Altitude Azimuth Distance (km) Brightness Sun altitude
Rises 22:47:06 0° 327° (NNW) 3,519 7.3 -10.3°
Reaches altitude 10° 22:51:51 10° 293° (WNW) 2,601 7.2 -11.2°
Maximum altitude 22:53:10 11° 280° (W) 2,549 7.5 -11.4°
Drops below altitude 10° 22:54:31 10° 266° (W) 2,610 7.8 -11.7°
Sets 22:59:20 0° 232° (SW) 3,561 8.0 -12.6°
